Location: Wingville
(42.9917°N, 90.4915°W)
Time: 20:47:46
(UTC+00:00)

AO-109 - Visible Passes

Search period start: 26 June 2022 00:00
Search period end: 06 July 2022 00:00
Orbit: 477 x 502 km, 60.7° (Epoch: 26 June)

Date Brightness Start Highest point End Pass type
(mag) Time Alt. Az. Time Alt. Az. Time Alt. Az.
29 Jun ? 09:42:26 10° S 09:45:14 21° ESE 09:48:05 10° ENE visible
30 Jun ? 09:18:17 10° SSE 09:20:52 18° ESE 09:23:29 10° ENE visible
01 Jul ? 08:54:11 10° SSE 08:56:29 16° ESE 08:58:49 10° ENE visible
02 Jul ? 08:30:08 10° SSE 08:32:06 14° ESE 08:34:04 10° E visible
03 Jul ? 08:06:35 11° SE 08:07:42 12° ESE 08:09:13 10° E visible
03 Jul ? 09:41:00 10° SW 09:44:42 65° NW 09:48:26 10° NE visible
04 Jul ? 07:42:58 10° ESE 07:43:18 10° ESE 07:44:00 10° ESE visible
04 Jul ? 09:17:23 16° SW 09:20:13 75° NW 09:23:59 10° NE visible
05 Jul ? 08:53:42 25° SW 08:55:44 85° NW 08:59:30 10° NE visible
